Theta_e
311 310 311 311 310 312 312 312 313 313 313 313 314 314 314 314 314 313 314 315 316 317 317 317 315 314 315 316 325 322 336 334 333 344 345 339 339 336 332 328 323 322 321 334
309 310 311 310 310 311 311 312 313 312 312 312 313 313 314 314 312 314 314 314 316 316 317 317 317 314 315 315 317 323 328 339 343 343 344 339 336 335 332 327 323 320 322 337
308 309 311 312 312 312 312 312 313 313 313 313 314 317 316 314 313 314 314 315 316 317 317 317 317 317 315 316 317 322 329 335 343 344 344 339 339 336 333 328 323 321 328 338
311 310 312 311 312 312 313 313 315 317 316 318 315 320 316 314 314 312 313 315 315 316 316 316 317 317 316 316 316 319 332 340 343 344 343 338 336 334 330 326 325 322 328 334
313 313 312 312 313 314 315 317 317 314 313 311 313 315 315 313 312 311 311 314 315 316 316 316 316 316 316 316 315 317 320 337 338 344 342 339 337 333 330 329 334 331 330 331
313 313 311 311 316 317 314 312 311 310 311 315 313 315 314 314 314 312 311 314 315 315 315 315 316 316 315 316 316 316 319 322 334 340 342 341 339 334 332 336 338 339 339 336
312 312 311 315 315 311 310 311 315 306 314 313 314 312 315 314 314 313 312 313 315 315 316 316 316 316 316 316 316 315 317 317 324 335 341 341 340 335 337 340 340 341 342 342
312 314 312 313 313 313 311 314 315 308 307 310 310 312 312 312 313 314 314 314 315 315 315 315 316 316 316 316 316 315 316 320 320 328 338 340 340 338 336 333 341 343 344 343
314 314 311 311 311 312 313 314 313 316 309 315 312 311 310 311 311 311 311 313 314 314 314 314 315 316 316 316 316 317 316 318 317 319 338 340 340 340 338 337 342 342 344 344
313 314 312 313 313 313 313 312 313 317 315 314 313 312 314 311 310 310 312 310 313 314 316 316 315 314 315 316 317 317 316 316 320 317 321 338 341 340 341 341 340 341 343 342
311 310 313 312 314 313 312 314 314 314 314 317 316 312 309 311 310 309 311 312 314 315 315 315 316 318 316 316 317 317 317 316 317 321 321 327 341 341 344 341 340 339 342 343
309 311 315 314 313 312 311 312 313 316 316 316 317 315 312 312 310 311 312 314 314 314 314 315 315 316 319 321 315 317 317 317 316 320 325 327 339 342 342 340 338 340 342 340
310 313 315 313 311 311 315 314 312 314 314 315 315 313 311 312 311 311 311 313 312 311 311 314 315 315 316 322 322 315 317 317 317 318 333 340 337 341 340 339 339 341 341 337
313 313 315 315 314 312 313 313 313 314 315 313 313 312 311 311 311 307 308 309 310 309 309 311 314 314 315 319 325 317 315 316 317 325 333 340 340 342 339 341 340 340 337 333
311 315 314 311 312 311 312 312 312 312 312 314 313 313 312 311 309 307 307 308 308 307 307 308 311 313 314 317 325 320 316 319 319 328 333 339 340 340 340 338 339 338 335 333
310 315 313 311 311 310 311 311 312 313 313 313 313 314 308 307 306 306 307 308 306 305 305 306 308 311 312 317 328 323 322 333 329 333 335 338 339 340 338 337 338 336 332 333
312 312 313 314 310 311 310 311 311 309 309 308 309 308 306 306 306 305 305 305 304 303 304 305 307 310 311 318 327 328 324 334 335 337 335 334 338 339 339 338 335 333 328 325
309 312 313 312 310 311 310 306 306 307 307 307 306 306 306 305 303 302 302 302 302 303 303 305 306 309 312 324 325 330 328 328 334 334 332 333 336 338 338 334 332 332 327 326
305 311 313 314 312 311 310 306 305 306 306 305 305 303 302 302 301 301 300 301 301 301 304 305 305 309 320 325 324 327 327 327 330 334 333 334 334 337 335 330 329 329 330 322
309 307 312 312 313 313 307 306 304 302 304 303 301 302 301 300 301 301 301 302 303 304 306 306 308 309 324 324 322 327 327 326 322 331 333 333 336 335 332 330 330 327 321 318
307 306 310 310 311 310 306 308 303 306 306 302 301 300 299 300 300 300 301 301 302 304 307 309 308 319 323 324 326 323 326 326 327 327 332 332 334 331 331 330 328 322 318 319
310 311 308 311 311 311 308 307 306 304 301 300 299 299 299 300 303 307 310 304 306 306 307 309 316 323 322 325 324 325 325 325 328 328 324 325 326 328 328 329 323 319 319 318
311 310 311 311 312 310 309 305 302 301 298 298 298 298 299 304 309 309 310 308 307 309 309 317 323 322 320 321 323 324 320 323 323 325 319 316 321 325 326 327 320 318 318 317
306 306 310 310 308 308 305 302 301 300 298 299 298 300 304 310 312 310 309 310 311 316 320 323 323 320 317 315 316 318 318 320 319 318 317 319 318 322 323 319 318 318 316 313
308 307 309 308 308 304 304 302 300 299 299 299 302 306 316 321 320 320 320 320 320 321 322 323 320 318 316 315 313 313 314 315 313 314 316 321 322 317 318 317 316 314 313 312
302 305 307 310 303 301 302 301 300 299 300 302 304 310 316 320 321 319 318 318 318 317 318 317 317 316 313 312 311 311 311 313 313 310 312 314 317 315 315 313 312 312 311 311
Wind_Speed
3 1 7 13 13 16 10 9 15 14 13 5 16 16 25 13 17 19 23 27 26 23 22 17 11 13 14 16 20 15 34 36 43 45 47 45 42 37 33 30 26 25 25 23
4 6 12 7 8 10 12 13 17 16 13 7 12 18 26 15 13 22 25 26 28 26 19 18 13 15 17 17 20 29 29 39 42 46 48 47 41 37 33 29 27 25 27 24
5 7 5 10 13 13 14 10 15 13 4 6 7 22 23 16 20 25 29 32 29 27 22 22 21 19 19 17 19 29 31 31 34 47 48 43 38 39 35 32 30 29 29 25
6 4 8 12 11 8 9 4 6 5 4 6 4 15 21 9 17 13 17 26 32 33 29 26 27 27 22 19 22 22 29 29 29 41 44 42 42 41 37 33 30 30 30 27
8 5 16 16 6 3 6 4 6 7 10 5 7 6 9 3 8 10 10 28 31 29 25 23 23 27 29 26 24 22 23 30 30 35 39 39 40 39 37 37 33 33 31 28
9 9 5 6 4 3 2 4 13 4 2 6 12 12 8 4 6 6 7 21 26 24 19 18 17 19 29 32 32 25 27 28 32 36 40 42 44 43 40 39 39 37 34 32
9 4 6 4 3 3 6 5 4 5 3 6 2 5 13 9 12 9 10 16 17 15 16 17 17 20 24 26 33 34 32 26 30 37 44 46 44 42 42 36 42 41 38 30
4 16 2 1 5 8 7 6 2 5 3 4 6 6 6 10 13 17 15 14 10 15 17 16 15 17 22 26 34 36 34 30 34 38 43 50 46 45 39 36 39 39 34 33
5 10 11 15 20 3 1 4 1 5 6 7 5 5 9 14 13 10 12 12 13 12 13 8 12 14 19 27 32 38 38 38 34 38 44 48 47 45 41 38 38 33 32 31
5 19 3 1 3 8 7 4 1 3 4 6 5 4 9 7 8 6 5 7 9 11 13 12 6 10 11 23 27 39 40 36 38 35 36 45 49 45 43 36 35 32 32 33
4 6 9 8 4 4 1 3 5 3 3 4 5 5 7 8 8 6 6 9 10 16 18 16 14 12 9 16 30 33 39 42 39 36 35 36 43 46 41 38 36 36 36 39
5 4 8 16 20 10 6 6 5 4 3 5 5 9 8 18 3 3 4 12 16 17 21 21 20 17 15 11 24 36 39 43 42 40 35 37 42 49 41 39 38 35 41 39
3 3 8 6 1 2 2 4 7 10 6 17 14 8 2 1 6 10 16 15 18 27 28 24 25 22 20 18 14 34 42 42 45 43 34 41 38 42 41 39 37 38 37 43
9 4 8 12 14 14 20 19 15 15 9 15 18 31 17 19 19 13 24 29 27 27 31 31 29 27 21 24 18 25 36 40 45 44 40 44 40 40 39 37 33 39 34 35
2 7 9 12 18 21 24 25 24 22 24 19 26 25 20 15 13 16 25 26 25 26 34 33 36 32 26 26 21 24 34 40 44 42 41 44 46 40 42 41 47 41 34 31
3 5 6 12 21 18 23 21 18 22 24 25 27 24 11 16 16 20 25 18 18 23 32 37 37 34 29 25 19 26 34 38 40 41 44 48 49 47 44 43 48 40 38 33
3 3 4 17 10 18 9 4 1 4 5 6 14 20 21 24 24 18 24 25 24 31 36 39 36 35 30 25 18 25 35 40 42 44 47 51 53 50 49 52 47 40 38 32
4 4 4 6 10 4 3 3 3 8 16 17 23 26 19 13 21 28 34 34 37 38 41 47 39 30 25 19 18 22 36 44 45 47 51 55 54 53 54 51 47 46 45 44
6 3 5 4 5 18 5 3 4 11 35 16 15 8 17 35 39 40 42 41 45 43 43 43 34 25 20 20 25 23 36 41 41 51 56 56 53 59 54 51 47 44 41 43
1 5 4 7 5 5 2 4 13 12 13 3 13 26 28 26 17 20 23 17 13 14 20 27 26 20 19 24 24 29 37 41 30 57 54 56 53 59 56 54 48 47 46 44
8 5 6 9 8 8 3 9 10 3 9 29 39 37 29 18 23 49 50 31 28 29 22 19 20 14 20 20 25 30 39 49 57 56 53 54 53 60 61 56 51 50 46 46
4 5 3 4 4 6 7 18 11 11 34 37 47 48 41 45 42 34 31 26 22 19 17 22 21 21 24 26 34 39 44 46 54 55 56 58 61 60 58 50 50 51 50 48
4 6 6 3 8 25 28 21 30 32 33 40 44 52 48 48 35 3 11 16 18 18 23 26 27 32 31 35 41 47 47 51 55 55 56 57 60 60 54 55 55 53 51 48
5 4 4 5 8 12 24 21 30 38 39 50 46 46 44 32 11 21 24 24 24 23 24 35 40 39 39 38 43 49 53 54 57 58 60 65 65 60 53 56 55 53 49 49
9 3 4 9 12 18 6 29 36 44 49 45 47 37 18 11 16 21 28 30 34 38 40 37 46 45 44 42 45 46 51 56 60 62 65 60 51 60 62 57 52 45 47 44
5 5 2 9 9 8 21 33 38 43 42 43 42 35 21 18 23 30 34 34 37 37 43 46 47 47 46 49 47 46 49 59 65 63 64 63 65 55 52 49 49 43 39 35
Wind_Direction
341 81 243 238 217 249 265 256 261 272 272 271 274 281 279 281 259 267 274 283 278 282 286 290 288 240 226 230 200 227 210 207 204 225 221 218 213 209 207 207 204 202 195 194
339 243 256 311 288 266 264 261 264 270 269 221 271 275 278 281 257 255 263 261 270 274 270 270 276 231 218 231 219 204 220 220 228 227 219 216 209 210 209 205 202 197 195 194
236 261 318 319 306 287 277 259 271 264 285 250 279 277 285 284 262 260 252 258 262 261 257 259 251 242 235 235 233 224 218 216 225 220 211 211 208 210 206 206 199 193 193 197
259 262 311 314 299 273 286 298 309 289 329 278 131 288 287 266 262 245 248 248 252 259 262 259 249 238 239 235 242 233 234 222 219 216 208 206 209 206 203 201 195 193 194 198
258 287 312 310 248 302 260 307 275 270 272 285 223 259 274 165 272 257 234 246 258 265 264 261 256 242 229 223 242 229 234 230 216 219 210 205 207 209 202 200 194 194 191 197
253 283 236 226 276 266 357 336 317 313 213 250 214 204 271 226 228 252 239 244 263 270 273 270 262 241 226 212 222 237 229 232 226 223 210 208 207 206 204 200 197 193 191 184
301 251 268 217 258 319 57 358 300 332 209 237 295 281 256 281 270 252 259 270 281 293 288 274 257 239 234 224 220 227 236 221 224 229 215 214 214 207 203 203 199 193 189 182
309 314 224 111 204 289 285 184 220 253 244 267 324 252 260 251 268 287 285 278 296 329 305 268 248 225 222 217 215 223 238 214 208 228 223 214 212 208 214 219 210 198 193 184
326 285 298 276 279 213 181 200 210 265 234 267 228 297 290 260 272 278 272 277 298 343 8 338 243 238 234 226 219 221 224 234 213 221 219 219 216 218 221 217 215 208 198 192
242 295 269 332 276 219 162 167 255 207 270 262 261 242 236 279 285 298 337 343 323 343 7 24 336 275 263 234 218 218 219 228 231 218 219 218 222 216 216 215 214 215 208 204
257 218 277 319 252 204 129 248 224 251 226 269 288 242 223 240 258 286 298 325 341 345 344 343 339 338 261 248 227 220 220 223 234 222 216 216 217 211 211 216 221 220 209 197
229 252 279 285 283 302 230 242 206 232 244 241 256 251 265 271 259 174 264 304 319 319 326 326 323 321 325 271 226 220 221 220 225 227 213 211 210 212 214 218 218 216 193 178
192 248 298 297 84 198 253 220 213 235 252 249 262 260 73 222 305 328 324 323 314 313 310 312 304 309 313 312 251 224 222 222 220 221 197 199 204 207 205 208 208 188 192 186
230 228 238 281 277 295 285 267 255 257 257 275 251 272 276 279 297 330 314 302 303 312 307 302 295 296 302 305 270 230 222 223 221 214 195 191 191 195 200 199 199 185 178 162
205 259 256 250 271 283 274 275 273 262 263 260 276 271 273 286 296 298 292 283 285 293 297 297 287 289 292 300 269 236 222 221 214 208 190 184 191 200 198 184 176 168 161 156
230 274 267 275 285 276 281 276 265 266 265 265 265 273 273 269 268 283 275 260 267 279 286 286 284 279 281 291 268 231 215 203 196 195 186 179 182 185 187 181 170 164 158 156
230 266 279 294 303 305 290 299 261 300 288 278 286 289 296 289 285 275 269 263 265 273 274 276 278 272 276 281 262 232 208 192 179 186 180 178 181 178 179 173 162 162 162 159
247 247 277 294 322 292 218 101 281 259 267 267 268 281 293 287 286 281 268 267 270 265 265 272 273 265 267 268 239 220 194 186 178 175 175 172 175 170 170 165 166 167 168 167
212 307 291 286 281 278 319 30 312 311 300 287 269 291 296 298 295 277 271 267 255 252 260 265 260 251 258 238 226 207 185 180 173 166 174 175 175 168 172 168 166 167 167 162
189 235 252 295 282 292 236 251 297 289 279 84 323 300 291 297 290 281 290 272 254 236 260 251 232 228 231 231 226 191 175 187 167 178 181 179 177 173 170 172 171 165 166 160
311 292 249 266 265 265 215 314 314 287 305 320 308 300 297 284 264 271 278 264 257 260 265 223 207 195 208 208 181 181 176 173 169 168 175 176 178 173 172 166 160 158 160 156
283 298 281 268 274 285 303 326 324 292 297 301 300 302 303 300 296 283 266 248 236 239 222 184 167 162 163 168 170 169 159 162 171 166 165 169 170 166 161 156 156 159 160 157
275 219 285 261 267 292 312 306 303 301 292 301 303 304 305 304 315 5 183 188 196 187 163 155 157 145 144 156 167 168 154 163 164 164 159 156 163 154 155 155 161 159 160 156
275 203 238 297 272 300 312 314 313 315 310 313 311 307 308 299 79 102 114 126 137 142 144 148 146 138 139 143 149 153 158 162 161 155 152 149 147 149 155 157 160 159 159 159
270 322 256 260 284 318 304 323 321 325 327 325 330 338 5 105 122 102 108 110 120 126 136 146 135 135 140 147 143 149 154 158 150 150 148 148 151 150 152 155 155 159 166 166
200 230 267 298 336 306 308 322 333 330 332 341 345 5 56 94 101 99 100 106 112 113 125 124 129 135 131 137 140 148 151 151 145 138 143 147 148 148 146 152 155 161 160 160